Regional Weather Roundup
Issued by NWS

Home | Current Version | Previous Version | Text Only | Print | Product List | Glossary Off
Versions: 1 2 3 4 5 6 7 8 9 10 11 12 13 14 15 16 17 18 19 20 21 22 23 24 25 26 27 28 29 30 31 32 33 34 35 36 37 38 39 40 41 42 43 44 45 46 47 48 49 50

000
ASUS43 KMKX 240320
RWRWI

WISCONSIN REGIONAL WEATHER ROUNDUP
NATIONAL WEATHER SERVICE MILWAUKEE/SULLIVAN WI
900 PM CST TUE JAN 23 2018

NOTE: "FAIR" INDICATES FEW OR NO CLOUDS BELOW 12,000 FEET WITH NO
SIGNIFICANT WEATHER AND/OR OBSTRUCTIONS TO VISIBILITY.

WIZ001-002-006>008-014>016-023>028-240400-
NORTHWEST WISCONSIN

CITY           SKY/WX    TMP DP  RH WIND       PRES   REMARKS
SUPERIOR ARPT  FAIR      10   6  82 CALM      30.17S
ASHLAND        FAIR      10   9  95 S3        30.17R
HAYWARD        FAIR       8   4  83 CALM      30.14S
SIREN          FAIR       7   4  86 CALM      30.17R
CUMBERLAND     FAIR       7   3  85 CALM      30.15R
RICE LAKE      FAIR       8   5  91 CALM      30.17R
CHETEK         FAIR      10   9  93 CALM      30.16R
LADYSMITH      CLOUDY    21  16  79 N5        30.15S WCI  15
EAU CLAIRE     CLOUDY    16  13  88 CALM      30.16R
MENOMONIE      FAIR      12  10  89 CALM      30.18R
NEW RICHMOND   FAIR       7   3  84 E3        30.16S
OSCEOLA        FAIR       8   5  89 CALM      30.20R
$$

WIZ003>005-009-010-017-018-240400-
NORTH CENTRAL WISCONSIN

CITY           SKY/WX    TMP DP  RH WIND       PRES   REMARKS
MANITOWISH WTR FLURRIES  13  13 100 NW3       30.09R
ARBOR VITAE    LGT SNOW  17  14  89 CALM      30.09R
WOODRUFF       LGT SNOW  17  14  89 CALM      30.09R
RHINELANDER    FAIR      11   9  92 CALM      30.09R
EAGLE RIVER    FLURRIES  14   9  81 N7        30.07S WCI   4
LAND O LAKES   FLURRIES  13  10  85 N6        30.09S WCI   4
PHILLIPS       FAIR      12  10  95 CALM      30.11S
TOMAHAWK       FLURRIES  19  15  84 NW7       30.11R WCI  10
MEDFORD        CLOUDY    18  14  87 NW3       30.10S
MERRILL        CLOUDY    20  17  86 NW5       30.11R WCI  14
$$

WIZ029-030-035-036-043>047-240400-
CENTRAL WISCONSIN

CITY           SKY/WX    TMP DP  RH WIND       PRES   REMARKS
WAUSAU         FAIR      20  15  81 NW5       30.10R WCI  13
MOSINEE        CLOUDY    21  18  86 N9        30.12R WCI  11
MARSHFIELD     CLOUDY    21  17  84 NW7       30.11R WCI  12
STEVENS POINT  CLOUDY    21  18  91 N5        30.12R WCI  14
WAUPACA        CLOUDY    27  19  72 NW7       30.13R WCI  19
WAUTOMA        CLOUDY    24  19  81 NW9       30.13R WCI  14
WISC RAPIDS    CLOUDY    22  16  78 NW9       30.14R WCI  12
CAMP DOUGLAS   CLOUDY    23  21  93 NW7       30.15R WCI  15
$$

WIZ011>013-019>022-031-037>040-048>050-240400-
NORTHEAST WISCONSIN

CITY           SKY/WX    TMP DP  RH WIND       PRES   REMARKS
ANTIGO         FAIR      15  12  86 NW6       30.08R WCI   6
SHAWANO        FAIR      20  16  83 CALM      30.12R
OCONTO         FAIR      19  15  84 NW3       30.12R
STURGEON BAY   CLOUDY    20  15  81 NW14      30.11R WCI   7
GREEN BAY      FAIR      24  17  74 NW12      30.11R WCI  13
MANITOWOC      CLOUDY    25  19  78 N13       30.10R WCI  14
APPLETON       CLOUDY    25  16  68 NW6       30.08R WCI  18
CLINTONVILLE   FAIR      21  16  79 NW5       30.12R WCI  15
OSHKOSH        CLOUDY    26  19  74 N12       30.11R WCI  16
$$

WIZ032>034-041-042-053>061-240400-
SOUTHWEST WISCONSIN

CITY           SKY/WX    TMP DP  RH WIND       PRES   REMARKS
LA CROSSE      CLOUDY    24  17  74 CALM      30.18S
SPARTA         CLOUDY    21  19  91 NW6       30.18S WCI  14
VIROQUA        CLOUDY    21  20  96 NW8       30.13S WCI  11
BOSCOBEL       CLOUDY    26  20  77 NW6       30.18R WCI  19
PRAIRIE DU CHI CLOUDY    24  18  75 NW6       30.18S WCI  17
PLATTEVILLE    CLOUDY    25  23  94 NW6       30.15R WCI  18
$$

WIZ056-057-062-063-064-067-068-240400-
SOUTH CENTRAL WISCONSIN

CITY           SKY/WX    TMP DP  RH WIND       PRES   REMARKS
REEDSBURG      CLOUDY    24  19  83 W6        30.14R WCI  16
BARABOO/DELLS  CLOUDY    24  19  83 NW3       30.13R
LONE ROCK      CLOUDY    25  20  81 NW8       30.17R WCI  16
MINERAL POINT  CLOUDY    27  27 100 N7        30.13R WCI  19
MADISON        CLOUDY    25  20  81 N7        30.13R WCI  17
MIDDLETON      CLOUDY    26  23  87 NW10      30.14R WCI  17
WATERTOWN      CLOUDY    26  23  88 W5        30.11R WCI  20
MONROE         CLOUDY    27  23  86 NW6       30.12R WCI  20
JANESVILLE     CLOUDY    28  27  93 N3        30.13R
$$

WIZ051-052-058>065-066-070>072-240400-
SOUTHEAST WISCONSIN

CITY           SKY/WX    TMP DP  RH WIND       PRES   REMARKS
MILWAUKEE      CLOUDY    29  22  75 W6        30.10R WCI  23
WAUKESHA       CLOUDY    25  21  86 NW7       30.11R WCI  17
MILWAUKEE/TIMM CLOUDY    27  19  74 W5        30.10S WCI  21
RACINE         CLOUDY    28  23  81 W5        30.12R WCI  23
BURLINGTON     CLOUDY    26  22  83 W5        30.12R WCI  20
KENOSHA        CLOUDY    27  22  81 W7        30.11R WCI  19
FOND DU LAC    CLOUDY    28  20  71 NW8       30.10R WCI  20
SHEBOYGAN      MOCLDY    26  22  84 N7        30.09R WCI  18
WEST BEND      CLOUDY    28  23  80 NW7       30.09R WCI  21
JUNEAU         CLOUDY    25  20  82 NW7       30.12R WCI  18
$$

LSZ147-162-240400-
LAKE SUPERIOR

STATION/POSITION TIME  TEMP    WIND        PRES    WAVE
                       AIR SEA DIR/SP/G            HT/PER
                 (UTC) (F)     (DEG/KT/KT) (MB)    (FT/S)
DEVILS ISLAND    0300   23     180/  4/  5 1023.0R
SAXON HARBOR     0240   20     160/  3/  4 1021.3R
$$

LMZ867-665-643>646-240400-
LAKE MICHIGAN

STATION/POSITION TIME  TEMP    WIND        PRES    WAVE
                       AIR SEA DIR/SP/G            HT/PER
                 (UTC) (F)     (DEG/KT/KT) (MB)    (FT/S)
NORTHPORT PIER   0301   19     300/  5/ 20 1019.0
KEWAUNEE LAKESHO 0254   23     330/  6/  9 1018.3R
SHEBOYGAN LAKESH 0300   27     320/  7/  9 1020.1R
PORT WASHINGTON  0230   29     290/  4/  5 1020.3R
MILWAUKEE LAKESH 0300   29     300/  5/  6   N/A
KENOSHA   LAKESH 0300   27     290/  5/  8 1020.0
$$

TC  - TEMPERATURE IN CELSIUS
VSB - VISIBILITY IN STATUTE MILES
WCI - WIND CHILL INDEX
HX  - HEAT INDEX




USA.gov is the U.S. government's official web portal to all federal, state and local government web resources and services.